Погода в Сергиевске

Россия / Самарская область     53°56′29″N   51°09′59″E
темп.,
°C
ветер,
м/с
пор.,
м/с
влажн.,
%
обл.,
%
осадки,
мм/ч
давл.,
гПа
погр.,
м
15 мая, сб
сб1501:00+17ююв22544 0.0 102118
04:00+16ююв22545 0.0 102218
07:00+18ююв3105219 0.0 1022266
10:00+25ю69365 0.0 1022459
13:00+29ю682739 0.0 10211102
16:00+29ююз682812 0.0 10201753
19:00+25ююв34455 0.0 102068
22:00+20ююв22500 0.0 102013
16 мая, вс
вс1601:00+18ююв22545 0.0 102011
04:00+17юв22565 0.0 102011
07:00+20ююв25555 0.0 1020158
10:00+26ю58410 0.0 1020609
13:00+30ююз68290 0.0 10192071
16:00+30юз69275 0.0 10183454
19:00+26ююз33436 0.0 101736
22:00+21ююз224957 0.0 101811
17 мая, пн
пн1701:00+20ююв3449100 0.0 101958
04:00+18ю335489 0.0 101942
07:00+20ю375798 0.0 1020148
10:00+26ю454191 0.0 1020369
13:00+29ююз443196 0.0 10191109
16:00+30юз2427100 0.0 10193051
19:00+21з71259100 0.3 1019233
22:00+21зсз125299 1.3 101936
18 мая, вт
вт1801:00+21ююв2247100 0.0 101811
04:00+18юв225870 0.0 101911
07:00+21ююв1255100 0.0 101987
10:00+25юв2243100 0.0 1019472
13:00+29ю2328100 0.0 10181482
16:00+30зсз132292 0.0 10172862
19:00+26всв344168 0.0 101660
22:00+21в223722 0.0 101718
19 мая, ср
ср1901:00+18юв126298 0.0 101711
04:00+17в226560 0.0 101719
07:00+21вюв24576 0.0 1017148
10:00+26вюв454417 0.0 1016601
13:00+28вюв553745 0.0 10161684
16:00+29юв443040 0.0 10152907
19:00+20юв6127268 0.0 1015341
22:00+17юв3127710 0.3 1015268